Helicity
117 137 79 37 35 64 174 105 88 57 39 44 20 16 21 44 27 12 23 35 27 26 13 -7 -9 33 36 25 20 8 9 10 6 5 7 18 14 7 -3 -4 -7 -14 -8 1
168 73 49 70 55 48 52 81 108 80 55 51 29 35 30 49 38 12 -5 27 35 18 19 6 -13 -0 12 38 21 10 5 7 17 22 28 25 17 7 2 -5 -10 -12 -12 -5
106 98 61 79 71 52 35 48 87 96 44 76 69 38 39 51 27 7 -18 -8 13 37 60 40 22 -20 44 33 4 7 6 8 25 34 31 42 30 43 16 -1 -12 -20 -9 1
108 82 73 57 57 43 63 30 72 111 182 62 45 64 47 52 24 -12 8 2 14 46 39 69 47 25 -10 12 57 29 14 21 22 22 -2 11 18 12 5 2 -4 -14 -7 3
98 87 83 84 65 49 63 76 51 58 129 142 68 88 45 51 35 -6 13 23 26 44 52 63 93 53 48 50 55 52 32 37 34 20 22 32 16 7 7 7 1 9 -18 -2
110 27 74 52 67 60 83 117 66 72 105 106 96 74 80 63 39 41 38 27 22 32 48 47 64 57 27 61 53 75 73 62 25 10 -13 -0 -8 11 16 9 -6 -2 -10 -13
33 103 55 54 66 68 73 98 167 147 152 106 73 91 74 72 78 49 41 33 32 36 45 38 57 61 57 72 83 83 111 91 66 -9 -15 -26 -27 -12 20 20 -8 4 -10 -12
64 89 44 39 74 65 94 96 173 132 129 90 72 115 60 33 114 34 40 39 35 23 2 26 52 69 85 66 94 96 148 124 110 -15 16 22 -36 -2 -4 -18 3 -9 -5 -8
110 65 117 159 63 93 48 109 77 105 86 154 66 57 51 39 38 7 86 95 49 35 21 22 43 44 81 80 77 129 164 141 151 104 105 67 -40 -16 -30 4 -17 -15 -1 13
132 116 62 75 106 93 154 54 126 111 178 126 109 61 80 27 73 56 23 58 66 34 18 36 35 46 48 71 78 84 109 150 165 153 121 72 -16 -19 -5 9 -20 -21 -5 -9
219 150 76 91 68 61 106 151 113 75 111 129 133 55 50 36 -2 44 56 45 35 24 10 -6 18 33 32 55 77 84 70 72 100 138 152 118 40 -1 1 -36 -33 -44 -24 -19
126 222 184 114 86 202 234 147 50 135 123 112 105 63 48 40 26 9 15 27 31 22 17 21 4 35 51 44 71 95 89 68 64 109 161 124 114 90 -33 -31 -42 -53 -46 -39
148 129 113 100 110 111 153 134 205 110 63 74 93 112 42 -1 81 57 49 103 110 97 75 34 28 66 32 46 46 68 69 67 71 84 88 97 84 80 30 -3 2 -58 -56 -33
107 177 179 237 213 275 197 165 221 230 154 139 113 95 27 22 41 67 85 86 141 123 128 47 47 37 44 36 57 56 54 51 63 83 86 103 92 100 73 68 71 26 -27 -11
90 143 117 162 189 203 243 243 235 253 270 178 73 60 85 71 122 47 53 48 126 146 174 103 69 35 30 31 23 49 31 63 65 119 101 123 134 115 88 93 90 80 28 -31
35 105 118 144 189 126 192 195 166 157 177 204 285 269 141 134 61 99 -30 15 86 140 159 189 162 108 55 31 12 29 39 62 100 150 158 150 122 125 115 107 98 96 72 82
39 59 84 162 136 147 151 148 94 111 97 110 115 135 112 114 100 5 3 -10 27 42 83 133 141 107 72 24 31 -5 32 45 78 129 159 189 161 128 128 123 114 115 99 87
29 53 56 129 131 158 101 148 220 203 67 68 135 177 164 181 268 57 -36 -10 94 54 74 101 120 103 73 55 13 27 27 61 108 94 99 126 152 119 112 127 122 125 108 112
21 55 62 71 99 121 105 121 186 334 151 207 195 200 151 116 126 109 45 22 1 34 94 106 100 120 99 62 31 36 31 39 89 143 111 105 131 124 110 117 122 119 121 108
9 40 61 123 112 163 100 119 213 221 197 266 283 210 153 166 66 113 143 128 108 37 -5 86 104 116 88 41 34 54 60 76 91 124 138 118 107 139 129 122 129 121 107 90
68 62 63 56 83 105 -7 33 -56 124 142 216 179 198 232 249 272 193 190 205 168 89 82 142 109 117 152 43 29 121 97 57 46 52 85 112 89 86 108 113 103 99 88 74
124 102 111 71 95 94 39 -51 70 96 161 144 180 156 192 290 313 253 199 241 271 195 158 175 130 138 290 166 106 149 124 97 54 66 97 139 128 80 61 62 60 61 70 74
39 -28 -22 78 64 99 53 47 19 8 85 166 140 159 214 302 382 397 274 292 345 348 263 307 264 138 283 377 205 158 128 105 83 87 112 134 114 100 92 73 45 39 52 65
12 -4 -34 -105 32 41 -6 7 -6 11 73 92 169 235 330 332 382 418 348 332 378 428 475 474 357 272 412 442 398 492 261 207 121 119 112 120 55 39 29 21 27 30 40 45
44 27 4 -44 -4 5 14 41 78 67 47 49 150 204 310 342 366 390 362 332 350 407 457 478 524 465 428 417 414 347 341 172 188 146 156 86 76 79 71 60 51 27 16 2
54 19 1 -13 55 52 60 59 68 35 58 47 129 213 217 254 295 365 384 315 304 356 356 402 507 529 491 414 371 331 382 363 248 197 179 149 143 114 125 82 73 97 126 151
Wind_Speed
36 43 41 49 54 61 55 57 69 64 46 53 56 62 29 28 22 5 20 28 49 53 51 45 53 27 28 64 67 75 75 72 71 69 67 62 60 56 51 47 45 44 41 39
42 64 54 55 54 60 57 56 59 54 62 56 55 71 55 29 41 25 17 26 37 44 53 49 56 49 43 41 64 75 78 75 74 69 66 62 60 56 52 47 47 45 45 42
60 47 59 58 59 59 64 63 55 61 54 62 65 68 60 39 43 31 13 23 35 32 47 56 53 81 35 38 69 78 80 77 73 69 67 59 56 51 54 51 51 47 47 45
71 67 51 61 68 61 69 60 65 59 62 64 59 73 57 46 39 28 21 39 46 34 38 41 54 59 89 75 54 77 78 78 76 77 76 72 65 62 60 55 52 49 48 45
64 59 70 61 65 69 74 57 62 68 73 74 49 67 68 40 47 35 36 31 40 44 48 46 51 64 51 70 76 73 79 78 80 83 80 70 73 66 60 59 55 54 49 47
71 52 59 76 64 60 57 61 63 64 73 92 84 64 76 37 40 46 50 54 43 46 49 49 43 32 77 63 76 71 68 79 88 90 87 83 78 73 65 62 61 57 54 51
64 69 61 55 63 62 60 62 66 69 79 92 75 89 77 55 42 58 49 43 41 29 33 42 43 41 36 45 52 66 64 68 74 94 92 81 79 80 70 63 64 59 57 53
66 74 68 60 72 61 73 71 76 80 76 84 78 86 105 89 43 54 63 46 48 38 46 46 49 44 40 42 44 46 48 58 44 81 94 90 83 85 80 73 68 64 60 55
64 76 48 56 63 73 62 91 81 85 67 82 76 85 77 72 90 56 50 55 52 37 35 54 45 52 41 40 43 46 50 49 54 43 64 82 90 90 82 78 73 70 65 59
54 71 54 53 63 76 83 66 87 90 99 95 79 80 85 83 73 73 73 65 54 56 51 39 47 53 53 45 40 47 67 58 50 55 60 82 96 94 91 82 78 73 69 66
54 64 59 58 71 78 78 90 79 86 89 92 90 74 68 74 67 74 57 60 61 64 59 74 51 49 53 41 37 43 65 68 65 62 61 70 96 96 92 87 83 77 74 71
48 60 82 76 50 60 69 81 96 92 101 100 91 84 36 49 63 44 63 68 72 65 59 56 51 25 37 49 42 39 45 63 67 64 61 54 76 83 96 93 87 80 77 75
46 59 80 84 82 68 76 72 80 88 97 107 99 96 51 41 36 35 44 46 47 51 59 56 48 24 40 45 44 42 41 48 55 61 57 54 61 76 97 95 91 83 79 80
54 68 73 85 63 57 74 77 73 89 104 95 98 76 90 79 65 50 50 45 44 47 51 57 48 44 27 42 42 39 36 46 52 52 54 54 51 49 44 75 68 32 45 85
57 75 73 80 75 74 83 88 88 93 95 109 98 93 82 59 52 54 54 52 52 48 43 44 51 52 43 28 41 39 38 42 50 53 50 49 50 52 58 59 51 44 32 52
58 76 69 82 81 78 89 90 92 98 98 98 93 93 74 73 70 67 57 56 57 54 54 50 49 54 54 36 49 41 39 38 43 49 49 51 51 51 53 53 50 48 39 56
59 63 70 81 68 74 98 98 99 98 95 95 107 92 77 75 76 67 62 60 59 60 59 58 58 60 61 51 25 46 42 38 40 48 48 47 48 50 51 53 55 53 45 62
62 63 68 74 67 93 66 51 69 88 91 93 90 83 76 78 72 60 58 62 64 63 63 64 64 67 67 67 43 29 34 41 44 56 52 45 45 48 52 55 56 57 56 60
47 60 66 75 75 76 63 57 60 64 73 69 80 81 77 78 82 83 63 62 66 68 70 70 70 72 72 74 62 28 34 37 41 49 50 42 39 42 45 49 52 54 57 64
33 34 64 65 81 89 58 53 51 55 83 59 64 70 73 73 87 64 61 61 65 67 69 73 74 75 80 83 70 36 35 38 40 42 45 44 38 36 39 43 44 49 55 64
35 17 64 77 79 77 51 54 49 79 78 64 63 67 68 69 67 67 58 58 59 61 64 67 67 70 72 72 64 46 38 44 44 35 44 46 42 34 34 38 41 42 46 55
27 28 32 62 73 91 50 54 63 58 63 61 64 65 68 69 66 62 57 54 53 53 52 54 57 60 62 64 64 58 51 43 36 35 40 45 44 41 34 33 36 41 44 55
23 22 25 49 57 48 51 62 61 59 66 69 65 65 68 70 67 62 57 53 50 47 45 45 47 43 43 47 56 62 56 49 40 35 34 39 42 43 41 36 34 35 42 55
30 21 22 27 50 59 64 62 60 64 65 67 64 64 66 68 64 60 54 51 47 43 42 41 37 34 35 35 41 44 52 50 42 36 30 32 36 38 39 37 36 36 39 47
35 18 17 24 54 57 53 55 58 65 65 65 64 60 61 63 62 57 54 51 47 45 41 37 34 32 30 31 32 36 46 50 46 38 31 30 31 37 38 41 41 41 44 42
42 44 26 20 47 51 54 55 57 62 64 64 65 63 62 61 60 56 53 49 48 48 42 37 34 32 28 25 25 26 32 35 40 37 36 35 33 36 42 41 48 48 49 54
Wind_Direction
249 247 246 253 253 251 260 254 245 246 254 248 251 243 259 256 257 168 137 144 156 161 161 161 162 201 215 221 218 209 207 206 201 197 195 203 202 202 195 196 197 188 186 184
254 252 254 255 254 254 256 255 250 251 244 250 252 243 251 250 248 252 154 150 151 157 164 166 167 168 170 226 225 214 210 209 207 210 210 212 211 211 208 207 201 203 191 185
254 266 253 253 252 252 252 252 252 248 252 248 249 249 249 248 249 251 199 161 156 158 164 170 171 183 215 180 186 218 214 215 216 216 213 221 220 227 218 209 196 194 187 183
257 255 264 249 250 250 252 252 252 253 250 250 247 249 249 245 243 236 224 169 169 166 166 169 175 176 190 203 233 224 221 220 218 214 205 211 218 218 213 208 206 202 192 188
254 253 250 252 253 249 249 257 252 252 249 249 246 250 247 235 241 233 245 186 176 175 172 173 176 180 191 230 228 229 224 225 220 213 211 224 215 220 221 213 217 210 208 201
259 258 256 251 254 254 252 252 253 253 249 245 242 247 244 236 233 245 248 244 180 176 177 178 178 197 230 233 229 231 232 228 219 211 198 208 211 213 222 221 211 211 208 203
257 253 255 256 247 247 245 241 245 246 242 244 245 244 243 251 243 246 245 244 243 212 187 180 181 183 204 222 229 232 232 233 231 209 206 192 195 208 225 229 211 219 209 203
255 251 247 248 246 245 241 241 240 243 245 246 246 245 237 241 260 249 246 249 248 244 185 186 184 185 190 196 212 221 225 232 220 192 216 216 196 213 215 212 217 212 213 212
259 252 258 253 250 245 244 239 244 250 255 249 247 245 249 246 240 246 247 250 246 248 188 186 188 186 191 196 202 216 226 226 230 210 237 231 203 208 208 221 216 214 220 229
267 256 259 252 253 249 246 250 240 243 243 243 247 245 241 243 243 243 245 247 247 251 254 188 186 186 186 190 203 224 234 233 224 231 237 232 212 213 216 225 214 216 220 220
276 259 255 256 247 244 243 242 244 244 242 243 244 248 248 247 245 241 247 247 250 250 253 238 193 184 184 189 218 222 234 235 235 233 235 238 223 218 221 212 214 211 219 217
276 265 252 251 257 254 253 246 240 241 238 242 246 244 258 253 241 246 246 249 250 252 251 248 246 214 188 185 189 207 224 234 236 235 234 232 237 235 214 216 213 210 212 214
276 264 254 250 252 253 247 246 247 246 243 239 239 239 245 251 248 251 251 256 258 257 252 249 249 217 186 185 187 189 220 228 232 234 232 232 237 238 224 222 226 207 208 217
274 262 256 247 258 257 246 245 246 244 239 239 240 246 239 241 248 260 260 261 262 261 257 250 251 247 199 187 189 193 206 229 231 230 230 232 231 231 229 240 244 220 191 225
268 261 259 256 260 257 252 248 247 243 243 239 242 242 240 241 254 261 261 259 259 260 262 257 252 249 250 199 188 197 201 229 231 231 228 227 231 235 240 243 244 244 210 197
268 260 262 258 257 257 253 250 248 245 244 244 245 246 247 251 254 256 260 261 259 260 259 262 259 254 253 244 187 192 201 211 226 229 227 231 233 234 237 241 243 246 242 251
266 263 259 256 259 258 250 249 248 247 245 245 241 247 251 251 251 256 259 261 261 260 263 263 262 258 257 258 227 191 200 222 222 231 229 227 228 232 236 240 244 245 243 250
267 263 258 255 261 246 251 263 255 252 244 244 247 247 253 251 253 258 263 263 262 264 265 265 263 257 255 253 255 220 214 221 230 237 235 230 227 232 238 241 243 245 247 248
268 265 258 253 253 252 261 259 256 250 238 245 248 251 254 255 252 251 264 267 266 266 266 265 265 259 258 251 253 226 204 211 220 230 232 225 221 226 233 237 241 244 246 248
187 257 258 259 249 245 255 259 266 258 240 251 256 254 255 255 242 248 265 270 269 271 269 268 267 264 256 247 249 229 201 212 211 218 222 226 223 218 223 234 237 242 246 248
173 222 256 252 251 251 263 265 264 240 240 259 260 258 255 249 253 259 267 270 274 276 274 275 271 266 263 252 245 233 219 199 193 227 230 232 230 222 225 235 239 239 244 249
132 150 275 256 251 246 269 262 250 258 264 264 263 261 256 253 257 261 265 270 277 280 280 284 276 270 265 251 242 238 236 240 227 231 230 232 232 232 227 227 237 242 246 249
106 139 156 261 257 271 271 263 265 266 264 261 265 262 257 252 254 259 262 268 276 281 281 287 283 277 267 255 243 239 243 237 230 226 227 231 234 233 236 233 233 237 244 248
67 87 158 177 260 263 268 267 261 263 268 262 262 261 256 251 252 257 260 263 272 277 280 287 290 279 265 263 252 250 240 235 229 227 221 225 226 230 233 235 238 241 246 249
45 80 155 166 238 266 256 257 267 262 264 258 256 257 256 250 250 256 258 261 267 270 275 285 290 279 270 269 263 254 245 233 228 228 222 218 225 231 236 241 245 247 250 250
45 29 54 155 262 260 257 265 266 262 264 260 250 250 251 252 251 255 256 261 264 263 269 277 281 274 270 268 268 258 248 238 230 230 231 230 232 236 239 241 246 253 259 259